| time (UTC) | temp F | wind direction | speed MPH | gust MPH | rain 1hr in | rain 24hr in | rain mn in | humidity % | barometer mb |
| 20260506154523 | 53 | 68 | 0.0 | 3.0 | 0.00 | 0.00 | 0.00 | 65 | 1011.6 |
| 20260506153022 | 53 | 65 | 1.0 | 6.0 | 0.00 | 0.00 | 0.00 | 68 | 1011.5 |
| 20260506151525 | 53 | 30 | 3.0 | 10.0 | 0.00 | 0.00 | 0.00 | 67 | 1011.5 |
| 20260506150019 | 52 | 59 | 6.0 | 17.0 | 0.00 | 0.00 | 0.00 | 68 | 1011.5 |
| 20260506144518 | 52 | 46 | 10.0 | 12.0 | 0.00 | 0.00 | 0.00 | 70 | 1011.4 |
| 20260506143024 | 52 | 18 | 8.0 | 12.0 | 0.00 | 0.00 | 0.00 | 72 | 1011.3 |
| 20260506141517 | 52 | 24 | 8.0 | 11.0 | 0.00 | 0.00 | 0.00 | 72 | 1011.4 |
| 20260506140017 | 52 | 28 | 7.0 | 11.0 | 0.00 | 0.00 | 0.00 | 70 | 1011.2 |
| 20260506134516 | 52 | 44 | 4.0 | 13.0 | 0.00 | 0.00 | 0.00 | 70 | 1011.2 |
| 20260506133016 | 52 | 38 | 7.0 | 13.0 | 0.00 | 0.00 | 0.00 | 71 | 1011.2 |
| 20260506131527 | 52 | 42 | 11.0 | 14.0 | 0.00 | 0.00 | 0.00 | 72 | 1010.9 |
| 20260506130016 | 52 | 30 | 11.0 | 15.0 | 0.00 | 0.00 | 0.00 | 72 | 1010.9 |
| 20260506124513 | 51 | 37 | 12.0 | 14.0 | 0.00 | 0.00 | 0.00 | 72 | 1011.0 |
| 20260506123013 | 52 | 35 | 11.0 | 13.0 | 0.00 | 0.00 | 0.00 | 72 | 1010.9 |
| 20260506121512 | 52 | 32 | 9.0 | 11.0 | 0.00 | 0.00 | 0.00 | 70 | 1010.9 |
| 20260506120015 | 53 | 37 | 6.0 | 8.0 | 0.00 | 0.00 | 0.00 | 68 | 1011.0 |
| 20260506114509 | 53 | 40 | 5.0 | 6.0 | 0.00 | 0.00 | 0.00 | 67 | 1011.1 |
| 20260506113006 | 53 | 39 | 3.0 | 5.0 | 0.00 | 0.00 | 0.00 | 66 | 1011.0 |
| 20260506111600 | 53 | 60 | 2.0 | 6.0 | 0.00 | 0.00 | 0.00 | 68 | 1011.0 |
| 20260506110103 | 52 | 35 | 5.0 | 8.0 | 0.00 | 0.00 | 0.00 | 68 | 1011.2 |
| 20260506104557 | 51 | 51 | 6.0 | 7.0 | 0.00 | 0.00 | 0.00 | 69 | 1011.2 |
| 20260506103058 | 51 | 31 | 7.0 | 10.0 | 0.00 | 0.00 | 0.00 | 69 | 1011.2 |
| 20260506101559 | 50 | 45 | 7.0 | 10.0 | 0.00 | 0.00 | 0.00 | 69 | 1011.2 |
| 20260506100109 | 50 | 10 | 8.0 | 11.0 | 0.00 | 0.00 | 0.00 | 71 | 1011.1 |
| 20260506094551 | 50 | 26 | 7.0 | 9.0 | 0.00 | 0.00 | 0.00 | 69 | 1011.1 |
| 20260506093051 | 50 | 41 | 6.0 | 9.0 | 0.00 | 0.00 | 0.00 | 68 | 1011.2 |
| 20260506091548 | 50 | 31 | 5.0 | 7.0 | 0.00 | 0.00 | 0.00 | 66 | 1011.1 |
| 20260506090046 | 50 | 34 | 5.0 | 7.0 | 0.00 | 0.00 | 0.00 | 66 | 1011.0 |
| 20260506084607 | 49 | 30 | 3.0 | 5.0 | 0.00 | 0.00 | 0.00 | 66 | 1011.1 |
| 20260506083044 | 49 | 32 | 3.0 | 6.0 | 0.00 | 0.00 | 0.00 | 63 | 1011.0 |
| 20260506081549 | 48 | 53 | 1.0 | 3.0 | 0.00 | 0.00 | 0.00 | 64 | 1010.9 |
| 20260506073045 | 48 | 109 | 2.0 | 6.0 | 0.00 | 0.00 | 0.00 | 65 | 1011.1 |
| 20260506071538 | 47 | 109 | 4.0 | 7.0 | 0.00 | 0.00 | 0.00 | 63 | 1011.1 |
| 20260506061529 | 46 | 86 | 2.0 | 5.0 | 0.00 | 0.00 | 0.00 | 59 | 1011.3 |
| 20260506044548 | 46 | 97 | 4.0 | 9.0 | 0.00 | 0.00 | 0.00 | 58 | 1011.5 |
| 20260506043016 | 46 | 143 | 6.0 | 9.0 | 0.00 | 0.00 | 0.00 | 57 | 1011.4 |
| 20260506041515 | 46 | 89 | 3.0 | 7.0 | 0.00 | 0.00 | 0.00 | 61 | 1011.4 |
| 20260506040013 | 46 | 74 | 6.0 | 10.0 | 0.00 | 0.00 | 0.00 | 59 | 1011.2 |
| 20260506034530 | 47 | 68 | 7.0 | 10.0 | 0.00 | 0.00 | 0.00 | 58 | 1011.2 |
| 20260506033010 | 47 | 71 | 6.0 | 9.0 | 0.00 | 0.00 | 0.00 | 58 | 1011.3 |
| 20260506031509 | 47 | 56 | 7.0 | 11.0 | 0.00 | 0.00 | 0.00 | 60 | 1011.3 |
| 20260506030006 | 46 | 78 | 6.0 | 11.0 | 0.00 | 0.00 | 0.00 | 60 | 1011.5 |
| 20260506024505 | 47 | 68 | 9.0 | 12.0 | 0.00 | 0.00 | 0.00 | 57 | 1011.5 |
| 20260506023003 | 47 | 71 | 9.0 | 13.0 | 0.00 | 0.00 | 0.00 | 56 | 1011.7 |
| 20260506021502 | 47 | 87 | 8.0 | 12.0 | 0.00 | 0.00 | 0.00 | 56 | 1011.9 |
| 20260506020100 | 47 | 83 | 6.0 | 13.0 | 0.00 | 0.00 | 0.00 | 59 | 1011.9 |
| 20260506014558 | 47 | 77 | 9.0 | 12.0 | 0.00 | 0.00 | 0.00 | 61 | 1011.9 |
| 20260506013055 | 47 | 72 | 5.0 | 11.0 | 0.00 | 0.00 | 0.00 | 61 | 1011.9 |
| 20260506011612 | 48 | 80 | 8.0 | 12.0 | 0.00 | 0.00 | 0.00 | 57 | 1011.8 |
| 20260506010059 | 48 | 86 | 7.0 | 15.0 | 0.00 | 0.00 | 0.00 | 58 | 1011.8 |
| 20260506004603 | 49 | 68 | 10.0 | 16.0 | 0.00 | 0.00 | 0.00 | 52 | 1011.6 |
| 20260506003101 | 49 | 67 | 12.0 | 16.0 | 0.00 | 0.00 | 0.00 | 52 | 1011.5 |
| 20260506001542 | 49 | 49 | 11.0 | 16.0 | 0.00 | 0.00 | 0.00 | 57 | 1011.6 |
| 20260506000040 | 49 | 69 | 13.0 | 17.0 | 0.00 | 0.00 | 0.00 | 54 | 1011.5 |
| 20260505234558 | 50 | 72 | 14.0 | 18.0 | 0.00 | 0.00 | 0.00 | 57 | 1011.5 |
| 20260505233039 | 50 | 63 | 13.0 | 18.0 | 0.00 | 0.00 | 0.00 | 57 | 1011.7 |
| 20260505231536 | 50 | 60 | 12.0 | 18.0 | 0.00 | 0.00 | 0.00 | 62 | 1011.4 |
| 20260505230040 | 50 | 56 | 14.0 | 18.0 | 0.00 | 0.00 | 0.00 | 60 | 1011.5 |
| 20260505224530 | 50 | 63 | 11.0 | 15.0 | 0.00 | 0.00 | 0.00 | 66 | 1011.6 |
| 20260505223027 | 50 | 60 | 12.0 | 16.0 | 0.00 | 0.00 | 0.00 | 66 | 1011.8 |
| 20260505221524 | 50 | 53 | 11.0 | 16.0 | 0.00 | 0.00 | 0.00 | 65 | 1011.8 |
| 20260505220029 | 50 | 56 | 12.0 | 15.0 | 0.00 | 0.00 | 0.00 | 66 | 1011.9 |
| 20260505214523 | 50 | 49 | 9.0 | 13.0 | 0.00 | 0.00 | 0.00 | 68 | 1012.0 |
| 20260505213019 | 50 | 53 | 9.0 | 12.0 | 0.00 | 0.00 | 0.00 | 66 | 1011.9 |
| 20260505211518 | 50 | 63 | 9.0 | 14.0 | 0.00 | 0.00 | 0.00 | 67 | 1012.0 |
| 20260505210017 | 50 | 57 | 10.0 | 13.0 | 0.00 | 0.00 | 0.00 | 67 | 1012.1 |
| 20260505204515 | 50 | 67 | 10.0 | 14.0 | 0.00 | 0.00 | 0.00 | 67 | 1011.9 |
| 20260505203015 | 50 | 43 | 10.0 | 13.0 | 0.00 | 0.00 | 0.00 | 68 | 1012.0 |
| 20260505201518 | 50 | 46 | 9.0 | 13.0 | 0.00 | 0.00 | 0.00 | 69 | 1012.0 |
| 20260505200013 | 50 | 66 | 10.0 | 14.0 | 0.00 | 0.00 | 0.00 | 69 | 1012.0 |
| 20260505194528 | 50 | 34 | 9.0 | 12.0 | 0.00 | 0.00 | 0.00 | 68 | 1012.0 |
| 20260505193031 | 50 | 51 | 8.0 | 13.0 | 0.00 | 0.00 | 0.00 | 67 | 1012.0 |
| 20260505191511 | 50 | 44 | 7.0 | 10.0 | 0.00 | 0.00 | 0.00 | 69 | 1011.9 |
| 20260505190012 | 50 | 35 | 8.0 | 11.0 | 0.00 | 0.00 | 0.00 | 68 | 1012.0 |
| 20260505184510 | 50 | 55 | 9.0 | 13.0 | 0.00 | 0.00 | 0.00 | 67 | 1011.9 |
| 20260505183013 | 50 | 50 | 8.0 | 13.0 | 0.00 | 0.00 | 0.00 | 66 | 1011.7 |
| 20260505181508 | 50 | 56 | 8.0 | 11.0 | 0.00 | 0.00 | 0.00 | 63 | 1011.6 |
| 20260505180007 | 50 | 52 | 8.0 | 11.0 | 0.00 | 0.00 | 0.00 | 65 | 1011.6 |
| 20260505174510 | 50 | 37 | 9.0 | 13.0 | 0.00 | 0.00 | 0.00 | 63 | 1011.6 |
| 20260505173006 | 50 | 30 | 11.0 | 14.0 | 0.00 | 0.00 | 0.00 | 64 | 1011.7 |
| 20260505171505 | 50 | 35 | 11.0 | 13.0 | 0.00 | 0.00 | 0.00 | 65 | 1011.8 |
| 20260505170011 | 50 | 31 | 10.0 | 16.0 | 0.00 | 0.00 | 0.00 | 64 | 1011.7 |
| 20260505164505 | 49 | 45 | 13.0 | 16.0 | 0.00 | 0.00 | 0.00 | 63 | 1011.8 |
| 20260505163004 | 49 | 63 | 13.0 | 15.0 | 0.00 | 0.00 | 0.00 | 65 | 1011.9 |
| 20260505161503 | 49 | 36 | 12.0 | 15.0 | 0.00 | 0.00 | 0.00 | 65 | 1011.9 |